Weather in Ust-Lekchim

Russia / Komi Republic     61°46′51″N   51°42′08″E
temp.,
°C
wind,
m/s
gust,
m/s
humid.,
%
clouds,
%
prec.,
mm/h
press.,
hPa
HPBL,
m
13 june, sun
sun1300:00+12se237612 0.1 101659
03:00+11sse28880 0.1 1016177
06:00+17sse3673100 0.0 1015529
09:00+20sse4558100 0.0 10141201
12:00+22sse3553100 0.0 10131674
15:00+22s1359100 0.3 1012470
18:00+21se136391 0.0 1011188
21:00+17sse26835 0.0 1011118
14 june, mon
mon1400:00+14ssw25975 0.0 101195
03:00+14s24975 0.0 101299
06:00+20s35715 0.0 1011460
09:00+25ssw465217 0.0 10101516
12:00+27sw464276 1.9 10092406
15:00+26ssw364451 2.1 10091662
18:00+24ssw365611 0.1 1008644
21:00+18ssw259285 4.4 1008102
15 june, tue
tue1500:00+16sw249748 3.4 100988
03:00+14wnw24964 3.4 101191
06:00+18nw2483100 0.0 1012357
09:00+22w245732 0.0 10121043
12:00+24wsw254969 0.1 10121699
15:00+25wsw2545100 0.4 10102080
18:00+24sw245549 0.1 1009746
21:00+17s2486100 0.2 100973
16 june, wed
wed1600:00+16ssw299214 0.4 1009159
03:00+15s28940 0.8 1009156
06:00+20s378014 0.1 1008264
09:00+24sw4851100 0.1 10071359
12:00+25sw5845100 0.1 10051681
15:00+18w31088100 1.7 1005510
18:00+16wnw3897100 6.2 1004515
21:00+14wnw3895100 6.8 1005452
17 june, thu
thu1700:00+12nnw41293100 0.3 1007601
03:00+10n4129492 0.9 1009785
06:00+11nnw598514 0.1 1011916
09:00+11n5866100 0.2 10141328
12:00+15nne594314 0.0 10151948
15:00+17nnw69305 0.0 10152614
18:00+16nnw410335 0.0 10172920
21:00+10nw25525 0.0 101977